| time (UTC) | temp F | wind direction | speed knots | gust knots | rain 1hr in | rain 24hr in | rain mn in | humidity % | barometer mb |
| 20260505124032 | 89 | 292 | 0.0 | 2.6 | 0.00 | 0.00 | 0.00 | 26 | 1009.0 |
| 20260505122532 | 90 | 90 | 0.9 | 0.9 | 0.00 | 0.00 | 0.00 | 26 | 1009.1 |
| 20260505121032 | 92 | 270 | 0.0 | 0.0 | 0.00 | 0.00 | 0.00 | 25 | 1009.4 |
| 20260505115532 | 90 | 270 | 0.9 | 0.9 | 0.00 | 0.00 | 0.00 | 27 | 1009.6 |
| 20260505114032 | 90 | 247 | 1.7 | 1.7 | 0.00 | 0.00 | 0.00 | 25 | 1009.7 |
| 20260505112532 | 89 | 292 | 1.7 | 1.7 | 0.00 | 0.00 | 0.00 | 28 | 1009.9 |
| 20260505111032 | 88 | 225 | 2.6 | 3.5 | 0.00 | 0.00 | 0.00 | 29 | 1010.1 |
| 20260505101032 | 94 | 270 | 1.7 | 2.6 | 0.00 | 0.00 | 0.00 | 25 | 1010.8 |
| 20260505095532 | 98 | 270 | 0.9 | 0.9 | 0.00 | 0.00 | 0.00 | 23 | 1010.9 |
| 20260505094032 | 102 | 225 | 0.0 | 3.5 | 0.00 | 0.00 | 0.00 | 22 | 1011.2 |
| 20260505092532 | 106 | 225 | 0.0 | 0.0 | 0.00 | 0.00 | 0.00 | 21 | 1011.3 |
| 20260505091033 | 105 | 247 | 0.0 | 2.6 | 0.00 | 0.00 | 0.00 | 21 | 1011.4 |
| 20260505085533 | 104 | 202 | 0.0 | 2.6 | 0.00 | 0.00 | 0.00 | 22 | 1011.8 |
| 20260505084033 | 103 | 270 | 3.5 | 3.5 | 0.00 | 0.00 | 0.00 | 22 | 1011.9 |
| 20260505082533 | 103 | 247 | 0.0 | 4.3 | 0.00 | 0.00 | 0.00 | 23 | 1012.0 |
| 20260505081033 | 100 | 225 | 0.0 | 1.7 | 0.00 | 0.00 | 0.00 | 24 | 1012.0 |
| 20260505075533 | 102 | 180 | 3.5 | 3.5 | 0.00 | 0.00 | 0.00 | 23 | 1012.1 |
| 20260505074033 | 100 | 180 | 0.0 | 1.7 | 0.00 | 0.00 | 0.00 | 25 | 1012.3 |
| 20260505072533 | 95 | 90 | 0.0 | 2.6 | 0.00 | 0.00 | 0.00 | 26 | 1012.2 |
| 20260505071033 | 101 | 90 | 1.7 | 1.7 | 0.00 | 0.00 | 0.00 | 25 | 1012.4 |
| 20260505065533 | 98 | 135 | 0.0 | 1.7 | 0.00 | 0.00 | 0.00 | 27 | 1012.7 |
| 20260505064033 | 93 | 157 | 0.0 | 1.7 | 0.00 | 0.00 | 0.00 | 31 | 1012.7 |
| 20260505062533 | 91 | 112 | 0.9 | 0.9 | 0.00 | 0.00 | 0.00 | 31 | 1012.7 |
| 20260505061033 | 91 | 112 | 0.0 | 0.0 | 0.00 | 0.00 | 0.00 | 32 | 1012.8 |
| 20260505055533 | 85 | 337 | 0.0 | 0.0 | 0.00 | 0.00 | 0.00 | 38 | 1012.8 |
| 20260505054033 | 69 | 337 | 0.0 | 0.0 | 0.00 | 0.00 | 0.00 | 50 | 1012.9 |
| 20260505052533 | 60 | 337 | 0.0 | 0.0 | 0.00 | 0.00 | 0.00 | 67 | 1013.0 |
| 20260505051033 | 59 | 337 | 0.0 | 0.0 | 0.00 | 0.00 | 0.00 | 67 | 1012.9 |
| 20260505041033 | 53 | 315 | 0.0 | 0.0 | 0.00 | 0.00 | 0.00 | 74 | 1012.9 |
| 20260505035533 | 53 | 315 | 1.7 | 1.7 | 0.00 | 0.00 | 0.00 | 73 | 1012.8 |
| 20260505034033 | 53 | 337 | 0.0 | 0.0 | 0.00 | 0.00 | 0.00 | 71 | 1012.8 |
| 20260505032533 | 54 | 337 | 0.9 | 1.7 | 0.00 | 0.00 | 0.00 | 71 | 1012.9 |
| 20260505031033 | 54 | 0 | 0.0 | 0.0 | 0.00 | 0.00 | 0.00 | 69 | 1013.0 |
| 20260505025533 | 55 | 0 | 0.0 | 0.0 | 0.00 | 0.00 | 0.00 | 69 | 1013.0 |
| 20260505024033 | 55 | 315 | 0.0 | 0.0 | 0.00 | 0.00 | 0.00 | 68 | 1013.0 |
| 20260505022533 | 56 | 337 | 0.0 | 0.9 | 0.00 | 0.00 | 0.00 | 66 | 1013.0 |
| 20260505021033 | 58 | 292 | 0.0 | 0.0 | 0.00 | 0.00 | 0.00 | 64 | 1013.0 |
| 20260505015533 | 58 | 337 | 0.0 | 1.7 | 0.00 | 0.00 | 0.00 | 64 | 1013.1 |
| 20260505014033 | 58 | 337 | 0.0 | 1.7 | 0.00 | 0.00 | 0.00 | 62 | 1013.2 |
| 20260505012533 | 59 | 292 | 1.7 | 3.5 | 0.00 | 0.00 | 0.00 | 62 | 1013.3 |
| 20260505011033 | 59 | 292 | 4.3 | 4.3 | 0.00 | 0.00 | 0.00 | 62 | 1013.3 |
| 20260505005533 | 59 | 337 | 2.6 | 2.6 | 0.00 | 0.00 | 0.00 | 61 | 1013.6 |
| 20260505004033 | 59 | 337 | 0.0 | 1.7 | 0.00 | 0.00 | 0.00 | 60 | 1013.7 |
| 20260505002533 | 60 | 315 | 1.7 | 1.7 | 0.00 | 0.00 | 0.00 | 59 | 1013.5 |
| 20260505001033 | 61 | 292 | 2.6 | 2.6 | 0.00 | 0.00 | 0.00 | 56 | 1013.9 |
| 20260504235534 | 62 | 292 | 0.0 | 0.0 | 0.00 | 0.00 | 0.00 | 55 | 1013.9 |
| 20260504234033 | 64 | 247 | 1.7 | 1.7 | 0.00 | 0.00 | 0.00 | 54 | 1013.9 |
| 20260504232533 | 65 | 247 | 0.0 | 0.0 | 0.00 | 0.00 | 0.00 | 52 | 1013.9 |
| 20260504231033 | 65 | 225 | 0.0 | 6.1 | 0.00 | 0.00 | 0.00 | 51 | 1013.8 |
| 20260504225533 | 66 | 67 | 0.9 | 5.2 | 0.00 | 0.00 | 0.00 | 50 | 1013.3 |
| 20260504224033 | 67 | 22 | 2.6 | 2.6 | 0.00 | 0.00 | 0.00 | 49 | 1013.4 |
| 20260504222533 | 67 | 67 | 3.5 | 3.5 | 0.00 | 0.00 | 0.00 | 50 | 1013.4 |
| 20260504221033 | 67 | 90 | 2.6 | 5.2 | 0.00 | 0.00 | 0.00 | 51 | 1013.6 |
| 20260504215534 | 67 | 0 | 0.9 | 2.6 | 0.00 | 0.00 | 0.00 | 50 | 1013.9 |
| 20260504214034 | 67 | 45 | 1.7 | 13.0 | 0.00 | 0.00 | 0.00 | 50 | 1014.1 |
| 20260504212534 | 66 | 315 | 2.6 | 7.0 | 0.00 | 0.00 | 0.00 | 51 | 1014.3 |
| 20260504211034 | 67 | 0 | 5.2 | 7.0 | 0.00 | 0.00 | 0.00 | 51 | 1014.6 |
| 20260504205534 | 66 | 292 | 5.2 | 5.2 | 0.00 | 0.00 | 0.00 | 51 | 1014.5 |
| 20260504204034 | 65 | 247 | 0.0 | 1.7 | 0.00 | 0.00 | 0.00 | 50 | 1014.5 |
| 20260504202534 | 65 | 270 | 1.7 | 3.5 | 0.00 | 0.00 | 0.00 | 50 | 1014.0 |
| 20260504201034 | 66 | 337 | 3.5 | 3.5 | 0.00 | 0.00 | 0.00 | 49 | 1013.9 |
| 20260504195534 | 66 | 22 | 0.0 | 1.7 | 0.00 | 0.00 | 0.00 | 48 | 1013.8 |
| 20260504194034 | 67 | 337 | 0.9 | 4.3 | 0.00 | 0.00 | 0.00 | 23 | 1013.6 |
| 20260504192534 | 67 | 0 | 0.9 | 1.7 | 0.00 | 0.00 | 0.00 | 48 | 1013.7 |
| 20260504191034 | 68 | 337 | 3.5 | 6.1 | 0.00 | 0.00 | 0.00 | 48 | 1013.7 |
| 20260504185534 | 68 | 315 | 0.9 | 0.9 | 0.00 | 0.00 | 0.00 | 47 | 1013.3 |
| 20260504184034 | 70 | 0 | 2.6 | 2.6 | 0.00 | 0.00 | 0.00 | 45 | 1013.2 |
| 20260504182534 | 71 | 337 | 0.0 | 3.5 | 0.00 | 0.00 | 0.00 | 44 | 1013.1 |
| 20260504181034 | 73 | 315 | 1.7 | 2.6 | 0.00 | 0.00 | 0.00 | 43 | 1013.1 |
| 20260504175534 | 74 | 337 | 2.6 | 2.6 | 0.00 | 0.00 | 0.00 | 40 | 1013.1 |
| 20260504174034 | 77 | 337 | 1.7 | 1.7 | 0.00 | 0.00 | 0.00 | 37 | 1012.9 |
| 20260504172534 | 79 | 337 | 1.7 | 3.5 | 0.00 | 0.00 | 0.00 | 36 | 1012.9 |
| 20260504171034 | 80 | 22 | 0.0 | 0.0 | 0.00 | 0.00 | 0.00 | 34 | 1012.9 |
| 20260504151034 | 86 | 67 | 0.0 | 0.0 | 0.00 | 0.00 | 0.00 | 23 | 1013.6 |
| 20260504141034 | 87 | 202 | 0.0 | 2.6 | 0.00 | 0.00 | 0.00 | 25 | 1014.4 |